Showing default

KUIPER-00023, 63737

Orbit data source: Space-Track

KUIPER-00023, 63737 is a payload satellite owned by Kuiper Systems (US) in LEO that was launched on Mon, 28 Apr 2025 UTC via an ATLAS V 551 launch vehicle from the Air Force Eastern Test Range (AFETR). Payload-class satellites include a variety of spacecraft equipped with specific instruments for various scientific and technological missions. These include communications satellites like Starlink; space stations such as the ISS; scientific satellites like the Hubble; Earth observation satellites from companies like Planet Labs, Umbra, and HawkEye 360; GPS; miniature CubeSats for education and research; and military/defense satellites.

Loading next visibility...
Identifier
63737, 2025-088P
Orbit
LEO
Country
Flag of USUS
Related business
Manufacturer
Kuiper Systems
Mission
Operational Commercial Communications
Bus & Motor
KUIPER, Unknown motor
Mass
~490 kg wet, ~490 kg dry
Launch date (UTC)
2025-04-28 (8 months ago)
Launch vehicle
ATLAS V 551
Launch site
Air Force Eastern Test Range (AFETR)
Object type
Payload
Rocket body
Debris
Shape & HBR
Box + 2 Pan, 3.4 m
Radar Cross Section
2.326 m², Large (>1 m²)

Expand to show TLE details & history
Last TLE update: 20 hours ago

TLE from 20 hours ago
0 KUIPER-00023
1 63737U 25088P   25348.76451944  .00006710  00000-0  90789-3 0  9991
2 63737  51.8989 121.0831 0012128 170.1481 189.9721 14.79919060 35180
Epoch: 2025-12-14T18:20Z
TLE epoch observation values (Epoch: 2025-12-14T18:20:54.479Z)
Latitude
-0.00005°
Longitude
122.18331°
Altitude
638.697 km
Speed
7.535 km/s
True Right ascension
08h 04m 19s
True Declination
0° 00' 00"
Sunlit
Object was in full shadow at epoch
Visualization orbit readout
Latitude
Unknown
Longitude
Unknown
Altitude
Unknown
Speed
Unknown
Apparent Right ascension
Unknown
Apparent Declination
Unknown
Sunlit
N/A
Visualization observer readout
Local Sidereal Time
13:19:51
Azimuth
Unknown
Elevation
Unknown
Doppler factor
Unknown
Orbital elements
Apogee altitude
638.53 km
Perigee altitude
621.531 km
Semi-major axis
7,008.168 km
Eccentricity
0.00121
Inclination
51.8989°
RAAN
121.0831°
Arg. of periapsis
170.1481°
True anomaly
189.94807°
Mean anomaly
189.9721°
Eccentric anomaly
189.96008°
Mean motion
3.69944 °/min
Orbital period
97.31 mins
BSTAR
0.00090789
Loading maneuver chart data...
Computing Atmospheric mass density...
Loading historical data...
Loading historical data...
Loading historical data...
Loading historical data...
Loading historical data...
Loading historical data...
Loading historical data...

Documentation

Showing up to 5 results
|